Location: Kumla
(59.1265°N, 15.1401°E)
Time: 04:29:50
(UTC+02:00)

Envisat - Visible Passes

Search period start: 22 May 2024 00:00
Search period end: 01 June 2024 00:00
Orbit: 762 x 764 km, 98.3° (Epoch: 21 May)

Date Brightness Start Highest point End Pass type
(mag) Time Alt. Az. Time Alt. Az. Time Alt. Az.
22 May 5.8 02:31:39 10° ENE 02:32:51 11° ENE 02:34:03 10° E visible
24 May 5.5 02:54:27 10° NE 02:57:34 16° E 03:00:40 10° ESE visible
27 May 5.6 02:41:53 10° NE 02:44:14 13° E 02:46:36 10° ESE visible
30 May 5.8 02:29:53 10° ENE 02:30:53 10° ENE 02:31:53 10° E visible
